User: anonymous   Login
Location: Voyageurs National Park
(48.5020°N, 92.9292°W)
Time: 08:43:31
(UTC-06:00)
Language:

Terra - Orbit

View from above orbital plane
View from above orbital plane
View from above satellite
View from above satellite

Ground track
Ground track

The orbit data is extracted from the following two-line orbital elements,

1 25994U 99068A   16045.07202719  .00000294  00000-0  75370-4 0  9996
2 25994  98.1993 121.1125 0001410 106.2364 253.8994 14.57124126859444
Epoch (UTC): 14 February 2016 01:43:43
Eccentricity: 0.0001410
inclination: 98.1993°
perigee height: 701 km
apogee height: 703 km
right ascension of ascending node: 121.1125°
argument of perigee: 106.2364°
revolutions per day: 14.57124126
mean anomaly at epoch: 253.8994°
orbit number at epoch: 85944

The dashed part of the orbit path shows where the satellite is in the earth's shadow,  

DLR